Location: Alvis C Story Elementary School
(33.0968°N, 96.6364°W)
Time: 13:06:25
(UTC+00:00)

Lacrosse 5 rocket - Pass Details

Date: 28 June 2022
Orbit: 456 x 628 km, 57.0° (Epoch: 17 August)

Event Time Altitude Azimuth Distance (km) Brightness Sun altitude
Rises 03:41:05 0° 342° (NNW) 2,609 5.9 -20.8°
Reaches altitude 10° 03:44:39 10° 17° (NNE) 1,767 4.3 -21.2°
Maximum altitude 03:46:03 12° 37° (NE) 1,687 3.9 -21.4°
Enters shadow 03:47:22 10° 57° (ENE) 1,787 3.8 -21.6°
